Total_Precipitation_Accumulation
0.05 0.07 0.09 0.11 0.12 0.09 0.11 0.16 0.21 0.26 0.23 0.27 0.44 0.72 1.03 1.17 1.48 1.38 1.38 1.53 1.66 1.78 2.10 2.54 2.83 3.35 3.95 4.39 4.81 5.01 5.08 4.96 4.79 4.44 4.14 3.89 3.64 3.42 3.17 2.98 2.88 2.82 2.75 2.97
0.07 0.10 0.08 0.08 0.09 0.10 0.12 0.17 0.21 0.26 0.26 0.34 0.53 0.78 1.12 1.18 1.26 1.28 1.18 1.23 1.41 1.76 2.03 2.55 2.87 3.07 3.50 4.02 4.50 4.83 5.01 4.90 4.52 4.16 4.01 3.92 3.88 3.47 3.20 3.17 3.33 3.15 3.15 3.18
0.10 0.09 0.08 0.08 0.08 0.11 0.15 0.18 0.21 0.23 0.26 0.45 0.61 1.11 1.36 1.24 1.25 1.24 1.17 1.23 1.41 1.85 2.31 2.61 2.81 2.94 3.19 3.59 3.90 4.01 4.19 4.17 4.01 4.05 4.07 4.04 4.08 3.67 3.61 3.62 3.63 3.41 3.42 3.44
0.08 0.06 0.07 0.10 0.11 0.14 0.18 0.16 0.16 0.19 0.30 0.57 0.67 1.38 1.79 1.51 1.42 1.50 1.46 1.41 1.67 1.96 2.01 2.21 2.50 2.77 2.94 3.18 3.49 3.71 3.78 3.73 3.66 3.79 3.85 3.76 3.58 3.46 3.63 3.91 3.84 3.58 3.37 3.26
0.07 0.07 0.08 0.11 0.11 0.12 0.15 0.16 0.19 0.25 0.34 0.55 0.72 1.11 1.67 1.61 1.76 1.73 1.56 1.61 1.87 1.85 1.75 1.86 2.07 2.39 2.51 2.84 3.11 3.32 3.58 3.67 3.62 3.70 3.69 3.73 3.56 3.55 3.61 3.62 3.68 3.48 3.31 3.00
0.07 0.08 0.08 0.09 0.10 0.11 0.14 0.19 0.30 0.39 0.55 0.95 0.78 0.90 1.48 1.57 1.50 1.50 1.48 1.43 1.60 1.56 1.53 1.75 1.93 2.22 2.38 2.51 2.65 2.76 2.98 3.25 3.42 3.47 3.44 3.49 3.45 3.43 3.39 3.38 3.28 3.08 2.94 2.74
0.12 0.14 0.12 0.10 0.11 0.13 0.16 0.29 0.73 1.11 1.30 1.29 0.70 0.82 1.34 1.25 1.17 1.19 1.30 1.33 1.34 1.28 1.27 1.49 1.65 1.83 2.04 2.15 2.26 2.41 2.71 3.05 3.13 3.10 3.05 3.17 3.25 3.26 3.20 3.18 3.04 2.83 2.60 2.39
0.20 0.27 0.17 0.12 0.13 0.16 0.19 0.26 0.66 0.98 1.08 1.07 0.88 1.27 1.68 1.26 1.09 1.12 1.22 1.21 1.16 1.08 1.03 1.16 1.43 1.74 1.92 1.91 1.98 2.13 2.44 2.72 2.76 2.68 2.82 3.09 3.17 3.20 3.12 3.17 2.86 2.60 2.39 2.34
0.16 0.16 0.13 0.13 0.16 0.17 0.19 0.21 0.30 0.50 0.59 0.88 1.14 1.43 1.43 0.98 0.91 0.97 1.03 1.07 1.18 1.11 1.02 1.09 1.19 1.41 1.55 1.62 1.69 1.84 2.27 2.55 2.64 2.72 2.84 2.98 3.10 3.07 3.04 2.95 2.67 2.41 2.43 2.38
0.13 0.12 0.13 0.13 0.14 0.16 0.18 0.22 0.27 0.39 0.65 1.01 1.21 1.50 1.61 1.13 0.92 0.70 0.68 0.78 0.85 0.86 0.86 0.94 0.99 1.11 1.22 1.40 1.67 1.86 2.02 2.35 2.46 2.56 2.72 2.77 3.00 2.90 2.74 2.70 2.48 2.24 2.14 2.22
0.11 0.11 0.15 0.15 0.16 0.19 0.20 0.22 0.26 0.30 0.44 0.76 1.28 1.47 1.12 0.91 0.77 0.74 0.72 0.81 0.85 0.81 0.77 0.82 0.96 1.09 1.19 1.33 1.55 1.69 1.74 1.97 2.17 2.31 2.51 2.50 2.50 2.57 2.64 2.49 2.23 2.15 2.18 2.28
0.08 0.10 0.16 0.20 0.25 0.23 0.20 0.19 0.23 0.32 0.33 0.44 0.79 1.12 0.80 0.79 0.81 0.79 0.79 0.87 0.95 0.91 0.83 0.88 1.05 1.18 1.26 1.40 1.45 1.50 1.58 1.80 2.01 2.21 2.42 2.49 2.48 2.54 2.58 2.44 2.25 2.25 2.31 2.31
0.09 0.12 0.23 0.41 0.51 0.35 0.23 0.18 0.20 0.23 0.22 0.37 0.68 0.98 0.68 0.62 0.77 0.96 1.26 1.42 1.18 1.00 0.93 0.98 1.09 1.13 1.13 1.24 1.39 1.43 1.45 1.66 1.90 2.13 2.43 2.60 2.65 2.63 2.56 2.38 2.17 2.08 2.02 2.04
0.14 0.12 0.22 0.48 0.58 0.46 0.33 0.23 0.20 0.18 0.24 0.34 0.46 0.77 0.71 0.74 0.83 1.03 1.19 1.10 1.06 0.99 0.95 1.02 1.03 1.16 1.16 1.19 1.33 1.35 1.42 1.53 1.81 2.06 2.26 2.40 2.30 2.24 2.25 2.13 1.94 1.84 1.81 1.82
0.19 0.16 0.14 0.21 0.33 0.35 0.31 0.28 0.24 0.20 0.19 0.34 0.43 0.61 0.71 0.77 0.87 1.09 1.23 1.19 1.07 0.91 0.85 0.87 0.88 0.95 1.00 1.15 1.29 1.22 1.26 1.34 1.50 1.70 1.80 1.95 1.93 1.89 1.86 1.91 1.93 1.91 1.94 1.88
0.25 0.26 0.23 0.24 0.28 0.32 0.35 0.34 0.29 0.24 0.20 0.26 0.40 0.65 0.86 0.86 0.88 1.04 1.07 0.93 0.79 0.70 0.60 0.57 0.76 0.86 0.82 0.85 0.97 0.95 1.01 1.16 1.32 1.41 1.51 1.76 1.88 1.88 1.87 1.94 2.07 2.09 2.03 2.00
0.31 0.37 0.37 0.36 0.33 0.33 0.43 0.43 0.36 0.29 0.29 0.30 0.45 0.69 0.96 0.83 0.73 0.84 0.90 0.86 0.78 0.77 0.60 0.55 0.64 0.79 0.79 0.80 0.82 0.93 1.06 1.20 1.31 1.45 1.60 1.81 1.94 2.02 2.05 2.03 2.14 2.08 2.07 2.13
0.47 0.51 0.46 0.43 0.54 0.63 0.48 0.39 0.41 0.41 0.43 0.39 0.54 0.59 0.74 0.73 0.76 0.88 0.89 0.87 0.73 0.73 0.67 0.63 0.61 0.62 0.67 0.74 0.81 0.96 1.25 1.50 1.56 1.71 1.91 2.03 2.17 2.12 2.11 2.11 2.14 2.23 2.31 2.34
0.41 0.61 0.61 0.59 0.72 0.64 0.56 0.41 0.47 0.54 0.72 0.74 0.84 0.81 0.76 0.72 0.84 0.94 0.80 0.73 0.75 0.66 0.63 0.67 0.71 0.73 0.78 0.84 0.88 1.06 1.29 1.61 1.81 1.86 1.96 2.12 2.23 2.27 2.28 2.28 2.26 2.37 2.50 2.47
0.45 0.62 0.77 0.72 0.89 0.87 0.74 0.56 0.57 0.73 1.28 1.12 1.08 1.07 0.93 0.84 1.02 1.13 1.03 0.95 0.88 0.79 0.73 0.74 0.77 0.89 1.08 1.15 1.16 1.28 1.42 1.56 1.75 1.83 1.94 2.12 2.35 2.41 2.43 2.59 2.69 2.67 2.63 2.51
0.79 0.85 0.89 0.88 0.96 1.06 0.88 0.77 0.80 1.33 1.70 1.36 1.21 1.16 1.09 1.19 1.25 1.19 1.05 1.04 0.96 0.85 0.85 0.83 0.85 1.01 1.26 1.39 1.43 1.53 1.68 1.77 1.79 1.86 2.01 2.20 2.37 2.47 2.55 2.75 2.84 2.83 2.78 2.77
1.00 1.06 1.06 1.07 1.28 1.50 1.03 0.98 1.40 1.70 1.44 1.47 1.47 1.41 1.29 1.27 1.22 1.15 1.06 1.08 1.01 0.92 0.97 1.00 1.04 1.20 1.43 1.59 1.57 1.65 1.76 1.78 1.82 1.83 1.98 2.11 2.26 2.28 2.37 2.66 2.76 2.88 2.93 2.88
1.10 1.21 1.29 1.44 1.59 1.45 1.21 1.29 1.44 1.56 1.72 1.63 1.55 1.62 1.42 1.39 1.27 1.16 1.11 1.07 1.04 0.98 1.01 1.08 1.14 1.33 1.59 1.77 1.80 1.88 1.80 1.88 1.92 1.94 2.07 2.21 2.28 2.32 2.42 2.55 2.60 2.70 2.78 2.74
1.36 1.22 1.43 1.70 1.72 1.61 1.50 1.37 1.20 1.31 1.43 1.41 1.43 1.47 1.45 1.38 1.27 1.17 1.09 1.03 1.01 1.02 0.99 1.07 1.18 1.27 1.38 1.59 1.80 1.92 1.96 2.01 2.01 2.05 2.11 2.20 2.30 2.29 2.37 2.50 2.61 2.72 2.81 2.89
1.60 1.41 1.63 1.94 1.82 1.69 1.67 1.52 1.39 1.47 1.53 1.44 1.38 1.37 1.39 1.35 1.27 1.13 1.10 1.07 1.05 1.04 1.01 1.06 1.18 1.24 1.31 1.39 1.52 1.59 1.72 1.84 1.91 1.98 2.06 2.10 2.13 2.22 2.34 2.41 2.52 2.51 2.58 2.61
1.68 1.69 1.95 2.28 1.97 1.81 1.79 1.60 1.43 1.50 1.48 1.56 1.67 1.64 1.40 1.29 1.37 1.30 1.17 1.09 1.08 1.11 1.10 1.12 1.19 1.21 1.24 1.33 1.52 1.60 1.68 1.81 1.96 2.07 2.11 2.06 2.01 2.08 2.13 2.21 2.24 2.27 2.16 2.16